| time (UTC) | temp C | wind direction | speed KPH | gust KPH | rain 1hr cm | rain 24hr cm | rain mn cm | humidity % | barometer mb |
| 20260904193758 | 21 | 270 | 0.0 | 0.0 | 0.00 | 1.37 | 0.00 | 72 | 1001.0 |
| 20260904193512 | 21 | 270 | 0.0 | 0.0 | 0.00 | 1.37 | 0.00 | 71 | 1001.0 |
| 20260904192013 | 21 | 270 | 0.0 | 0.0 | 0.00 | 1.45 | 0.00 | 72 | 1001.0 |
| 20260904190757 | 21 | 270 | 0.0 | 0.0 | 0.00 | 1.45 | 0.00 | 72 | 1001.0 |
| 20260904183758 | 21 | 270 | 0.0 | 0.0 | 0.00 | 1.45 | 0.00 | 73 | 1001.0 |
| 20260904183513 | 21 | 270 | 0.0 | 0.0 | 0.00 | 1.45 | 0.00 | 73 | 1001.0 |
| 20260904182013 | 21 | 270 | 0.0 | 0.0 | 0.00 | 1.45 | 0.00 | 72 | 1001.0 |
| 20260904180758 | 21 | 270 | 0.0 | 3.2 | 0.00 | 1.55 | 0.00 | 73 | 1001.0 |
| 20260904173758 | 22 | 270 | 0.0 | 0.0 | 0.00 | 1.55 | 0.00 | 75 | 1001.0 |
| 20260904173513 | 22 | 270 | 0.0 | 0.0 | 0.00 | 1.55 | 0.00 | 76 | 1001.0 |
| 20260904170757 | 22 | 270 | 0.0 | 0.0 | 0.00 | 1.55 | 0.00 | 81 | 1002.0 |
| 20260904165013 | 22 | 270 | 0.0 | 0.0 | 0.00 | 1.55 | 0.00 | 84 | 1002.0 |
| 20260904163758 | 22 | 270 | 0.0 | 0.0 | 0.00 | 1.55 | 0.00 | 86 | 1001.0 |
| 20260904163513 | 22 | 270 | 0.0 | 0.0 | 0.00 | 1.55 | 0.00 | 86 | 1001.0 |
| 20260904160758 | 22 | 315 | 0.0 | 0.0 | 0.00 | 1.55 | 0.00 | 90 | 1001.0 |
| 20260904155012 | 22 | 315 | 0.0 | 0.0 | 0.00 | 1.55 | 0.00 | 91 | 1001.0 |
| 20260904153757 | 22 | 315 | 0.0 | 0.0 | 0.00 | 1.55 | 0.00 | 91 | 1001.0 |
| 20260904150758 | 22 | 225 | 0.0 | 0.0 | 0.00 | 1.55 | 0.00 | 90 | 1001.0 |
| 20260904145012 | 22 | 225 | 0.0 | 0.0 | 0.00 | 1.55 | 1.55 | 90 | 1001.0 |
| 20260904143757 | 23 | 225 | 0.0 | 0.0 | 0.00 | 1.55 | 1.55 | 90 | 1001.0 |
| 20260904143512 | 23 | 225 | 0.0 | 0.0 | 0.00 | 1.55 | 1.55 | 90 | 1001.0 |
| 20260904142013 | 23 | 225 | 0.0 | 0.0 | 0.10 | 1.55 | 1.55 | 91 | 1001.0 |
| 20260904140758 | 23 | 225 | 0.0 | 0.0 | 0.10 | 1.55 | 1.55 | 91 | 1001.0 |
| 20260904140513 | 23 | 225 | 0.0 | 0.0 | 0.10 | 1.55 | 1.55 | 92 | 1001.0 |
| 20260904133758 | 23 | 225 | 0.0 | 0.0 | 0.10 | 1.55 | 1.55 | 91 | 1002.0 |
| 20260904133513 | 23 | 225 | 0.0 | 0.0 | 0.10 | 1.55 | 1.55 | 91 | 1002.0 |
| 20260904132012 | 23 | 225 | 0.0 | 0.0 | 0.00 | 1.45 | 1.45 | 90 | 1001.0 |
| 20260904130756 | 23 | 225 | 0.0 | 0.0 | 0.00 | 1.45 | 1.45 | 90 | 1001.0 |
| 20260904123758 | 23 | 225 | 0.0 | 0.0 | 0.00 | 1.45 | 1.45 | 88 | 1001.0 |
| 20260904120757 | 23 | 225 | 0.0 | 0.0 | 0.00 | 1.45 | 1.45 | 87 | 1002.0 |
| 20260904113757 | 23 | 225 | 0.0 | 0.0 | 0.00 | 1.45 | 1.45 | 85 | 1002.0 |
| 20260904110757 | 23 | 225 | 0.0 | 0.0 | 0.00 | 1.45 | 1.45 | 82 | 1002.0 |
| 20260904103757 | 23 | 225 | 0.0 | 0.0 | 0.00 | 1.45 | 1.45 | 83 | 1001.0 |
| 20260904100757 | 23 | 225 | 0.0 | 0.0 | 0.00 | 1.45 | 1.45 | 79 | 1001.0 |
| 20260904093757 | 23 | 135 | 0.0 | 0.0 | 0.00 | 1.45 | 1.45 | 80 | 1001.0 |
| 20260904090756 | 23 | 135 | 0.0 | 0.0 | 0.10 | 1.55 | 1.45 | 83 | 1001.0 |
| 20260904083759 | 23 | 135 | 0.0 | 0.0 | 0.10 | 1.65 | 1.45 | 83 | 1001.0 |
| 20260904080758 | 23 | 315 | 0.0 | 0.0 | 0.00 | 1.65 | 1.37 | 84 | 1002.0 |
| 20260904075012 | 24 | 315 | 0.0 | 0.0 | 0.10 | 1.65 | 1.37 | 86 | 1001.0 |
| 20260904073759 | 24 | 315 | 0.0 | 0.0 | 0.10 | 1.65 | 1.37 | 86 | 1002.0 |
| 20260904070758 | 24 | 315 | 0.0 | 0.0 | 0.10 | 1.65 | 1.37 | 83 | 1002.0 |
| 20260904063759 | 23 | 315 | 0.0 | 0.0 | 0.00 | 1.55 | 1.27 | 77 | 1002.0 |
| 20260904060758 | 24 | 135 | 0.0 | 0.0 | 0.00 | 1.55 | 1.27 | 72 | 1002.0 |
| 20260904053759 | 25 | 135 | 0.0 | 0.0 | 0.00 | 1.55 | 1.27 | 74 | 1001.0 |
| 20260904050758 | 25 | 135 | 0.0 | 0.0 | 0.00 | 1.65 | 1.27 | 72 | 1002.0 |
| 20260904043758 | 25 | 135 | 0.0 | 0.0 | 0.00 | 1.65 | 1.27 | 73 | 1001.0 |
| 20260904040757 | 25 | 135 | 0.0 | 0.0 | 0.00 | 1.65 | 1.27 | 67 | 1002.0 |
| 20260904033758 | 25 | 135 | 0.0 | 0.0 | 0.00 | 1.65 | 1.27 | 63 | 1002.0 |
| 20260904030757 | 25 | 135 | 0.0 | 0.0 | 0.00 | 1.65 | 1.27 | 67 | 1002.0 |
| 20260904023758 | 25 | 135 | 0.0 | 0.0 | 0.00 | 1.65 | 1.27 | 68 | 1002.0 |
| 20260904020757 | 25 | 135 | 0.0 | 0.0 | 0.10 | 1.65 | 1.27 | 71 | 1002.0 |
| 20260904013758 | 25 | 270 | 0.0 | 0.0 | 0.10 | 1.65 | 1.27 | 83 | 1002.0 |
| 20260904010759 | 24 | 270 | 0.0 | 0.0 | 0.00 | 1.55 | 1.17 | 88 | 1002.0 |
| 20260904005013 | 23 | 270 | 0.0 | 0.0 | 0.00 | 1.55 | 1.17 | 89 | 1002.0 |
| 20260904003758 | 23 | 270 | 0.0 | 0.0 | 0.00 | 1.55 | 1.17 | 90 | 1002.0 |
| 20260904002012 | 23 | 270 | 0.0 | 0.0 | 0.23 | 1.55 | 1.17 | 92 | 1002.0 |
| 20260904000757 | 23 | 135 | 0.0 | 0.0 | 0.33 | 1.55 | 1.17 | 93 | 1003.0 |
| 20260903233757 | 23 | 135 | 0.0 | 0.0 | 0.43 | 1.55 | 1.17 | 93 | 1002.0 |
| 20260903230757 | 23 | 135 | 0.0 | 0.0 | 0.23 | 1.22 | 0.84 | 93 | 1003.0 |
| 20260903223758 | 23 | 135 | 0.0 | 0.0 | 0.33 | 1.12 | 0.74 | 91 | 1003.0 |
| 20260903220758 | 23 | 135 | 0.0 | 0.0 | 0.30 | 0.99 | 0.61 | 89 | 1003.0 |
| 20260903213757 | 23 | 135 | 0.0 | 0.0 | 0.20 | 0.79 | 0.41 | 87 | 1003.0 |
| 20260903210756 | 23 | 135 | 0.0 | 4.8 | 0.10 | 0.71 | 0.30 | 87 | 1003.0 |
| 20260903210511 | 23 | 135 | 0.0 | 8.0 | 0.10 | 0.71 | 0.30 | 87 | 1003.0 |
| 20260903205013 | 23 | 135 | 3.2 | 4.8 | 0.00 | 0.61 | 0.20 | 88 | 1003.0 |
| 20260903203757 | 23 | 180 | 0.0 | 0.0 | 0.00 | 0.61 | 0.20 | 88 | 1002.0 |
| 20260903200758 | 23 | 180 | 0.0 | 0.0 | 0.10 | 0.61 | 0.20 | 89 | 1002.0 |